Location: Blue Sky Observatory
(43.1153°N, 70.9036°W)
Time: 08:42:32
(UTC-04:00)

Amateur Radio Satellites - All Passes

Search period start: 29 July 2014 08:12
Search period end: 30 July 2014 08:12
Location: Blue Sky Observatory, 43.1153°N, 70.9036°W

Satellite Date Start Highest point End Downlink Frequencies (MHz)
Time Altitude Azimuth
PCSat 29 Jul 08:23:13 08:27:21 22° 43° (NE) 08:31:27 145.825 MHz
AO-7 29 Jul 08:33:16 08:34:41 11° 322° (NW) 08:36:06 29.400 - 29.500 MHz
JAS-2 29 Jul 08:47:00 08:51:00 19° 303° (WNW) 08:54:45 435.800 - 435.900 CW/SSB, 435.910 FM
HO-68 29 Jul 09:06:51 09:13:13 34° 96° (E) 09:19:33 435.675 MHz FM
KITSAT 1 29 Jul 09:22:16 09:27:51 20° 334° (NNW) 09:33:27 435.175 FM
Sapphire 29 Jul 09:32:29 09:37:51 59° 56° (NE) 09:43:12 437.095 MHz 1200 baud AX-25 AFSK
UKube-1 29 Jul 09:40:52 09:44:57 38° 98° (E) 09:48:59 145.840 MHz, 145.915 MHz
Saudisat 1A 29 Jul 09:50:12 09:52:10 13° 326° (NNW) 09:54:09 436.775 MHz
PCSat 29 Jul 10:05:54 10:11:20 73° 243° (WSW) 10:16:42 145.825 MHz
Oscar 11 29 Jul 10:25:36 10:29:55 63° 101° (E) 10:34:13 145.825 FM, Beacon 2401.500 USB
FUNcube-1 29 Jul 10:47:54 10:51:50 39° 98° (E) 10:55:48 145.950 - 145.970 MHz USB
HO-68 29 Jul 10:54:17 11:01:06 49° 295° (WNW) 11:07:53 435.675 MHz FM
SO-50 29 Jul 11:16:32 11:18:13 12° 108° (ESE) 11:19:55 436.795 FM
Sapphire 29 Jul 11:16:52 11:20:49 21° 254° (WSW) 11:24:45 437.095 MHz 1200 baud AX-25 AFSK
UKube-1 29 Jul 11:17:38 11:20:55 21° 295° (WNW) 11:24:11 145.840 MHz, 145.915 MHz
KITSAT 1 29 Jul 11:23:28 11:27:10 13° 5° (N) 11:30:51 435.175 FM
Oscar 11 29 Jul 12:03:26 12:05:35 14° 298° (WNW) 12:07:45 145.825 FM, Beacon 2401.500 USB
JAS-1B 29 Jul 12:22:08 12:28:14 20° 48° (NE) 12:34:32 435.800 - 435.900 CW/SSB
FUNcube-1 29 Jul 12:25:03 12:27:59 19° 295° (WNW) 12:30:55 145.950 - 145.970 MHz USB
Oscar 19 29 Jul 12:29:03 12:33:16 27° 65° (ENE) 12:37:30 437.125 CW, 437.150 USB
AO-Echo 29 Jul 12:43:14 12:46:51 19° 61° (ENE) 12:50:29 ?
HO-68 29 Jul 12:46:14 12:47:08 10° 315° (NW) 12:48:01 435.675 MHz FM
SO-50 29 Jul 12:53:38 12:58:06 78° 305° (NW) 13:02:41 436.795 FM
Oscar 16 29 Jul 12:56:39 13:01:33 49° 70° (ENE) 13:06:29 437.025 USB, Beacon 2401.1428
RS-15 29 Jul 13:00:51 13:11:29 54° 113° (ESE) 13:21:54 29.354 - 29.394 USB, Beacon 29.352 USB
UOSAT-12 29 Jul 13:14:33 13:17:01 14° 108° (ESE) 13:19:30 437.025 FM, 437.400 FM
ITAMSAT 1 29 Jul 13:18:35 13:23:18 36° 67° (ENE) 13:28:02 435.822 SSB
KITSAT 1 29 Jul 13:19:28 13:26:02 26° 35° (NE) 13:32:33 435.175 FM
AO-27 29 Jul 13:37:29 13:42:33 54° 71° (ENE) 13:47:38 436.795 MHz FM
Uribyol 2 29 Jul 13:37:31 13:42:35 56° 71° (ENE) 13:47:39 436.500 FM
TMSAT-1 29 Jul 13:39:31 13:43:03 18° 61° (ENE) 13:46:35 436.925 FM
AO-7 29 Jul 13:55:08 14:00:05 17° 46° (NE) 14:05:01 29.400 - 29.500 MHz
Gurwin Techsat 1B 29 Jul 14:02:32 14:07:24 38° 68° (ENE) 14:12:17 435.225 FM
Oscar 19 29 Jul 14:07:38 14:12:25 40° 262° (W) 14:17:14 437.125 CW, 437.150 USB
JAS-1B 29 Jul 14:07:57 14:16:50 68° 69° (ENE) 14:26:38 435.800 - 435.900 CW/SSB
AO-Echo 29 Jul 14:19:50 14:25:06 65° 259° (WSW) 14:30:24 ?
SO-50 29 Jul 14:36:57 14:39:27 14° 326° (NW) 14:42:00 436.795 FM
Oscar 16 29 Jul 14:37:20 14:41:10 21° 267° (W) 14:45:01 437.025 USB, Beacon 2401.1428
Uosat F 29 Jul 14:41:27 14:44:22 16° 60° (ENE) 14:47:17 435.120 FM
UOSAT-12 29 Jul 14:51:58 14:56:34 71° 306° (NW) 15:01:16 437.025 FM, 437.400 FM
Saudisat 1A 29 Jul 14:54:26 14:57:41 20° 40° (NE) 15:00:54 436.775 MHz
ITAMSAT 1 29 Jul 14:58:17 15:02:49 30° 264° (W) 15:07:23 435.822 SSB
RS-15 29 Jul 15:13:17 15:23:56 51° 317° (NW) 15:34:32 29.354 - 29.394 USB, Beacon 29.352 USB
KITSAT 1 29 Jul 15:14:30 15:22:39 85° 58° (ENE) 15:30:43 435.175 FM
TMSAT-1 29 Jul 15:17:11 15:22:27 65° 258° (WSW) 15:27:44 436.925 FM
AO-27 29 Jul 15:18:38 15:22:23 20° 268° (W) 15:26:09 436.795 MHz FM
Uribyol 2 29 Jul 15:18:47 15:22:24 19° 268° (W) 15:26:02 436.500 FM
OPAL 29 Jul 15:33:44 15:35:37 12° 91° (E) 15:37:29 ?
Gurwin Techsat 1B 29 Jul 15:42:51 15:47:25 29° 265° (W) 15:52:01 435.225 FM
AO-7 29 Jul 15:43:07 15:51:22 68° 67° (ENE) 15:59:40 29.400 - 29.500 MHz
JAS-1B 29 Jul 16:00:05 16:07:54 33° 270° (W) 16:16:28 435.800 - 435.900 CW/SSB
Uosat F 29 Jul 16:17:31 16:22:33 73° 257° (WSW) 16:27:37 435.120 FM
Saudisat 1A 29 Jul 16:33:18 16:37:40 63° 239° (WSW) 16:42:00 436.775 MHz
UOSAT-12 29 Jul 16:35:05 16:37:35 14° 327° (NNW) 16:40:07 437.025 FM, 437.400 FM
Hamsat 29 Jul 16:45:24 16:47:55 16° 64° (ENE) 16:50:27 145.90 MHz
OPAL 29 Jul 17:09:59 17:15:05 85° 287° (WNW) 17:20:14 ?
KITSAT 1 29 Jul 17:11:24 17:17:03 21° 257° (WSW) 17:22:41 435.175 FM
JAS-2 29 Jul 17:11:48 17:18:51 40° 66° (ENE) 17:25:27 435.800 - 435.900 CW/SSB, 435.910 FM
RS-15 29 Jul 17:31:14 17:39:42 25° 349° (NNW) 17:48:15 29.354 - 29.394 USB, Beacon 29.352 USB
AO-7 29 Jul 17:37:52 17:44:44 28° 266° (W) 17:51:39 29.400 - 29.500 MHz
Hamsat 29 Jul 18:19:27 18:23:29 49° 261° (W) 18:27:35 145.90 MHz
SO-67 29 Jul 18:22:06 18:24:53 23° 70° (ENE) 18:27:40 435.3500 MHz FM
OPAL 29 Jul 18:51:08 18:53:12 13° 305° (NW) 18:55:17 ?
JAS-2 29 Jul 18:56:18 19:03:43 47° 262° (W) 19:10:44 435.800 - 435.900 CW/SSB, 435.910 FM
STRAND 1 29 Jul 19:34:13 19:39:21 75° 103° (ESE) 19:44:25 ?
HO-68 29 Jul 19:36:57 19:42:56 30° 59° (ENE) 19:48:55 435.675 MHz FM
SO-50 29 Jul 19:44:28 19:48:02 21° 40° (NE) 19:51:38 436.795 FM
RS-15 29 Jul 19:47:37 19:56:53 30° 24° (NNE) 20:06:17 29.354 - 29.394 USB, Beacon 29.352 USB
SO-67 29 Jul 19:55:13 19:57:54 21° 266° (W) 20:00:36 435.3500 MHz FM
UKube-1 29 Jul 20:37:18 20:41:21 38° 70° (ENE) 20:45:25 145.840 MHz, 145.915 MHz
MaSat-1 29 Jul 20:52:03 20:55:57 46° 110° (ESE) 21:00:29 437.345 MHz
STRAND 1 29 Jul 21:15:00 21:17:55 16° 301° (WNW) 21:20:49 ?
Oscar 11 29 Jul 21:21:29 21:25:41 55° 73° (ENE) 21:29:54 145.825 FM, Beacon 2401.500 USB
HO-68 29 Jul 21:23:10 21:30:13 59° 258° (WSW) 21:37:18 435.675 MHz FM
SO-50 29 Jul 21:24:19 21:29:03 68° 239° (WSW) 21:33:50 436.795 FM
UOSAT-12 29 Jul 21:41:17 21:44:56 22° 40° (NE) 21:48:34 437.025 FM, 437.400 FM
FUNcube-1 29 Jul 21:45:24 21:49:21 37° 71° (ENE) 21:53:15 145.950 - 145.970 MHz USB
RS-15 29 Jul 22:00:25 22:11:29 74° 53° (NE) 22:22:54 29.354 - 29.394 USB, Beacon 29.352 USB
ISS 29 Jul 22:08:50 22:09:51 11° 130° (SE) 22:10:52 145.800 FM
UKube-1 29 Jul 22:14:26 22:17:41 20° 266° (W) 22:20:58 145.840 MHz, 145.915 MHz
MaSat-1 29 Jul 22:30:09 22:33:36 22° 312° (NW) 22:37:25 437.345 MHz
Oscar 11 29 Jul 23:00:02 23:02:13 14° 270° (W) 23:04:25 145.825 FM, Beacon 2401.500 USB
PCSat 29 Jul 23:09:10 23:11:07 12° 102° (ESE) 23:13:04 145.825 MHz
UOSAT-12 29 Jul 23:20:49 23:25:31 63° 240° (WSW) 23:30:07 437.025 FM, 437.400 FM
FUNcube-1 29 Jul 23:22:42 23:25:52 20° 266° (W) 23:29:01 145.950 - 145.970 MHz USB
ISS 29 Jul 23:42:44 23:46:04 85° 147° (SSE) 23:49:26 145.800 FM
RS-15 30 Jul 00:13:38 00:22:56 33° 254° (WSW) 00:32:35 29.354 - 29.394 USB, Beacon 29.352 USB
Sapphire 30 Jul 00:15:21 00:20:26 44° 113° (ESE) 00:25:33 437.095 MHz 1200 baud AX-25 AFSK
PCSat 30 Jul 00:48:16 00:53:40 87° 119° (ESE) 00:59:08 145.825 MHz
Oscar 16 30 Jul 01:08:34 01:11:40 16° 90° (E) 01:14:46 437.025 USB, Beacon 2401.1428
ISS 30 Jul 01:20:17 01:23:06 24° 345° (NNW) 01:25:56 145.800 FM
ITAMSAT 1 30 Jul 01:32:58 01:34:19 11° 88° (E) 01:35:39 435.822 SSB
Uribyol 2 30 Jul 01:50:20 01:53:50 18° 92° (E) 01:57:18 436.500 FM
AO-27 30 Jul 01:50:41 01:54:06 18° 91° (E) 01:57:30 436.795 MHz FM
JAS-1B 30 Jul 01:55:21 02:01:52 21° 84° (E) 02:07:44 435.800 - 435.900 CW/SSB
Sapphire 30 Jul 01:59:13 02:04:00 31° 312° (NW) 02:08:48 437.095 MHz 1200 baud AX-25 AFSK
Oscar 19 30 Jul 02:17:43 02:22:53 67° 102° (ESE) 02:28:02 437.125 CW, 437.150 USB
Gurwin Techsat 1B 30 Jul 02:19:16 02:21:51 14° 89° (E) 02:24:26 435.225 FM
AO-Echo 30 Jul 02:26:40 02:31:24 39° 97° (E) 02:35:58 ?
AO-40 30 Jul 02:29:14 04:00:45 20° 222° (SW) 06:44:45 Beacon 2401.320
PCSat 30 Jul 02:34:05 02:37:50 19° 320° (NW) 02:41:36 145.825 MHz
Oscar 16 30 Jul 02:46:21 02:51:29 66° 287° (WNW) 02:56:36 437.025 USB, Beacon 2401.1428
OPAL 30 Jul 02:48:35 02:52:35 25° 62° (ENE) 02:56:36 ?
ISS 30 Jul 02:58:07 03:00:38 19° 5° (N) 03:03:09 145.800 FM
ITAMSAT 1 30 Jul 03:09:18 03:14:31 90° 280° (W) 03:19:41 435.822 SSB
Uribyol 2 30 Jul 03:28:37 03:33:41 57° 289° (WNW) 03:38:43 436.500 FM
AO-27 30 Jul 03:28:55 03:34:01 60° 288° (WNW) 03:39:05 436.795 MHz FM
TMSAT-1 30 Jul 03:32:06 03:37:13 47° 99° (E) 03:42:17 436.925 FM
JAS-1B 30 Jul 03:44:13 03:53:44 88° 286° (WNW) 04:01:47 435.800 - 435.900 CW/SSB
AO-7 30 Jul 03:45:07 03:50:47 20° 90° (E) 03:56:24 29.400 - 29.500 MHz
Gurwin Techsat 1B 30 Jul 03:57:06 04:02:26 78° 286° (WNW) 04:07:43 435.225 FM
Oscar 19 30 Jul 03:58:23 04:01:41 17° 299° (WNW) 04:04:59 437.125 CW, 437.150 USB
AO-Echo 30 Jul 04:05:48 04:09:58 26° 295° (WNW) 04:14:01 ?
Uosat F 30 Jul 04:24:37 04:29:06 32° 96° (E) 04:33:32 435.120 FM
OPAL 30 Jul 04:26:37 04:31:15 41° 259° (W) 04:35:57 ?
ISS 30 Jul 04:34:46 04:37:59 41° 25° (NNE) 04:41:12 145.800 FM
ITAMSAT 1 30 Jul 04:50:56 04:53:15 13° 303° (WNW) 04:55:33 435.822 SSB
MaSat-1 30 Jul 05:09:34 05:13:39 22° 48° (NE) 05:17:38 437.345 MHz
TMSAT-1 30 Jul 05:12:39 05:16:50 25° 296° (WNW) 05:21:02 436.925 FM
STRAND 1 30 Jul 05:14:30 05:17:39 17° 60° (ENE) 05:20:49 ?
JAS-1B 30 Jul 05:35:50 05:42:49 24° 309° (NW) 05:49:12 435.800 - 435.900 CW/SSB
AO-7 30 Jul 05:36:11 05:44:34 88° 289° (WNW) 05:52:53 29.400 - 29.500 MHz
Gurwin Techsat 1B 30 Jul 05:39:43 05:41:30 12° 304° (NW) 05:43:17 435.225 FM
KITSAT 1 30 Jul 05:43:29 05:51:14 53° 113° (ESE) 05:59:02 435.175 FM
Uosat F 30 Jul 06:03:25 06:07:50 32° 294° (WNW) 06:12:14 435.120 FM
Hamsat 30 Jul 06:04:22 06:08:02 27° 95° (E) 06:11:42 145.90 MHz
JAS-2 30 Jul 06:06:32 06:11:10 24° 91° (E) 06:15:28 435.800 - 435.900 CW/SSB, 435.910 FM
ISS 30 Jul 06:11:38 06:14:38 30° 222° (SW) 06:17:38 145.800 FM
Saudisat 1A 30 Jul 06:41:10 06:44:50 26° 114° (ESE) 06:48:31 436.775 MHz
MaSat-1 30 Jul 06:46:13 06:51:30 66° 247° (WSW) 06:56:27 437.345 MHz
STRAND 1 30 Jul 06:51:09 06:56:16 70° 258° (WSW) 07:01:25 ?
SO-67 30 Jul 07:17:42 07:20:34 23° 95° (E) 07:23:25 435.3500 MHz FM
Sapphire 30 Jul 07:21:15 07:22:27 11° 30° (NNE) 07:23:39 437.095 MHz 1200 baud AX-25 AFSK
AO-7 30 Jul 07:30:17 07:36:17 23° 310° (NW) 07:42:16 29.400 - 29.500 MHz
KITSAT 1 30 Jul 07:39:15 07:46:51 42° 314° (NW) 07:54:28 435.175 FM
Hamsat 30 Jul 07:40:16 07:43:58 29° 291° (WNW) 07:47:41 145.90 MHz
JAS-2 30 Jul 07:50:57 07:56:39 47° 292° (WNW) 08:01:47 435.800 - 435.900 CW/SSB, 435.910 FM
PCSat 30 Jul 07:52:59 07:56:32 17° 39° (NE) 08:00:04 145.825 MHz
